Location: Newark
(7.0858°N, 171.3717°E)
Time: 15:32:26
(UTC+00:00)

Vanguard 3 - Pass Details

Date: 05 December 2020
Orbit: 508 x 3262 km, 33.4° (Epoch: 14 January)

Event Time Altitude Azimuth Distance (km) Brightness Sun altitude
Exits shadow 14:29:57 27° 127° (SE) 2,863 10.1 -56.3°
Drops below altitude 10° 14:35:07 10° 126° (SE) 4,541 11.3 -55.2°
Sets 14:39:45 0° 126° (SE) 5,991 12.1 -54.2°
